Weather Roundup
Issued by NWS

Home | Current Version | Previous Version | Text Only | Print | Product List | Glossary On
Versions: 1 2 3 4 5 6 7 8 9 10 11 12 13 14 15 16 17 18 19 20 21 22 23 24 25 26 27 28 29 30 31 32 33 34 35 36 37 38 39 40 41 42 43 44 45 46 47 48 49 50
321
NZUS93 KARX 250859
HRRWXR

CURRENT HOURLY OBSERVATIONS ACROSS
MUCH OF THE UPPER MISSISSIPPI VALLEY
NATIONAL WEATHER SERVICE LA CROSSE WI
400 AM CDT MON JUL 25 2016


...SOUTHEAST MINNESOTA...


CITY           SKY/WX    TMP DP  RH WIND       PRES   REMARKS
ROCHESTER      CLEAR     63  62  97 W7        30.04F
ROCHESTER/MAYO FAIR      66  64  91 W5        30.04S
WINONA         CLEAR     66  63  88 NW5       30.00F
AUSTIN         CLEAR     63  61  94 CALM      30.04F
ALBERT LEA     CLEAR     64  63  94 CALM      30.05S
DODGE CENTER   PTCLDY    61  61 100 W6        30.04S
PRESTON        CLEAR     63  60  91 W8        30.04F
OWATONNA       CLEAR     61  57  88 CALM      30.04S FOG
FARIBAULT      CLEAR     63  61  94 CALM      30.04S
$$

...ELSEWHERE IN MINNESOTA...


CITY           SKY/WX    TMP DP  RH WIND       PRES   REMARKS
MINNEAPOLIS    CLEAR     69  60  73 W3        30.01S
INTNL FALLS    CLEAR     59  58  96 W5        29.94R
DULUTH         CLEAR     63  60  90 W9        29.96R
RED WING       CLEAR     63  63 100 CALM      30.00S
REDWOOD FALLS  PTCLDY    65  60  84 W9        30.03F
MANKATO        CLEAR     64  61  88 W5        30.04S
WORTHINGTON    CLEAR     62  59  90 W6        30.08S
FAIRMONT       CLEAR     63  55  77 W5        30.04S
$$

...SOUTHWEST WISCONSIN...


CITY           SKY/WX    TMP DP  RH WIND       PRES   REMARKS
LA CROSSE      CLEAR     69  64  84 CALM      29.99S
PRAIRIE DU CHI CLEAR     68  64  88 CALM      30.01S
BOSCOBEL       CLEAR     67  65  93 CALM      30.00S
LONE ROCK      NOT AVBL
PLATTEVILLE    MOCLDY    69  68  99 NW5       30.01S
FORT MC COY    CLEAR     60  59  98 CALM      30.00S
MAUSTON-NEW LI SUNNY     69  64  85 W7        29.98S
VIROQUA        FAIR      64  64 100 W6        30.02S
WIS DELLS      NOT AVBL
$$

...ELSEWHERE IN WISCONSIN...


CITY           SKY/WX    TMP DP  RH WIND       PRES   REMARKS
MILWAUKEE      CLOUDY    78  65  63 W5        29.94F
MADISON        CLOUDY    71  65  81 NW5       29.97S
GREEN BAY      CLEAR     66  65  96 W6        29.92S
EAU CLAIRE     CLEAR     66  62  87 SW5       29.98S
BLACK RVR FLS  FOG       60  60 100 CALM      29.99S VSB<1/4
MEDFORD        CLEAR     62  62 100 W6        29.98S
WAUSAU         CLEAR     65  62  90 NW9       29.95S
WIS RAPIDS     CLEAR     68  61  78 W8        29.98S
MARSHFIELD     CLEAR     64  60  87 W8        29.98S
RICE LAKE      CLEAR     62  59  88 CALM      30.00R
$$

...NORTHEAST IOWA...


CITY           SKY/WX    TMP DP  RH WIND       PRES   REMARKS
WATERLOO       CLEAR     65  63  93 CALM      30.03S
DUBUQUE        MOCLDY    70  65  84 N8        30.02S
DECORAH        CLEAR     64  64 100 CALM      30.03S
MASON CITY     CLEAR     62  61  96 NW6       30.07S
CHARLES CITY   CLEAR     63  63 100 CALM      30.06R
OELWEIN        CLEAR     64  63  94 W5        30.05S
$$

...ELSEWHERE IN IOWA...


CITY           SKY/WX    TMP DP  RH WIND       PRES   REMARKS
DES MOINES     PTCLDY    71  64  78 N5        30.04R
IOWA CITY      CLOUDY    72  65  78 N7        30.03R
FORT DODGE     CLEAR     64  61  88 CALM      30.07S
MARSHALLTOWN   CLEAR     66  65  96 N7        30.04S
CEDAR RAPIDS   CLOUDY    67  67 100 CALM      30.02R
$$

...NORTHERN ILLINOIS...


CITY           SKY/WX    TMP DP  RH WIND       PRES   REMARKS
CHICAGO-OHARE  CLOUDY    74  68  81 W9        29.96F
CHICAGO-MIDWAY CLOUDY    76  66  71 SW7       29.95F
MOLINE         CLOUDY    73  66  78 CALM      30.00R
ROCKFORD       CLOUDY    77  67  71 CALM      29.99S
PEORIA         CLOUDY    74  72  93 NW5       29.99F
$$

NOTE: "FAIR" INDICATES FEW OR NO CLOUDS BELOW 12,000 FEET WITH NO
SIGNIFICANT WEATHER AND/OR OBSTRUCTIONS TO VISIBILITY. WIND
SPEEDS ARE IN MILES-PER-HOUR.




USA.gov is the U.S. government's official web portal to all federal, state and local government web resources and services.